HAZ705 ZSPD-RCTP

Flight info

Callsign HAZ705
Flight time N/A
Altitude 38100
Route MIGOL B591 KASKA/N0460F380 B591 BERBA/N0431F240 B591 BAKER
Aircraft B738/M-SDE2E3FGHIRWXY/LB1

Departure

Time 2026-05-06 19:28
Airport Shanghai Pudong International Airport (ZSPD)

Arrival

Time N/A
Airport Taiwan Taoyuan International Airport (RCTP)
Time Latitude Longitude Altitude Speed Heading
2026-05-06 19:11 31.14744 121.79809 21 ft 0 kts 72°
2026-05-06 19:14 31.14742 121.79800 21 ft 2 kts 70°
2026-05-06 19:14 31.14737 121.79783 21 ft 2 kts 72°
2026-05-06 19:14 31.14732 121.79766 21 ft 2 kts 71°
2026-05-06 19:14 31.14728 121.79750 21 ft 2 kts 72°
2026-05-06 19:15 31.14723 121.79733 21 ft 2 kts 71°
2026-05-06 19:15 31.14720 121.79723 21 ft 1 kts 72°
2026-05-06 19:15 31.14712 121.79707 21 ft 2 kts 40°
2026-05-06 19:15 31.14699 121.79699 21 ft 2 kts 15°
2026-05-06 19:16 31.14684 121.79697 21 ft 1 kts 349°
2026-05-06 19:16 31.14678 121.79700 21 ft 1 kts 339°
2026-05-06 19:16 31.14675 121.79701 21 ft 0 kts 341°
2026-05-06 19:18 31.14681 121.79699 21 ft 2 kts 343°
2026-05-06 19:18 31.14718 121.79686 21 ft 7 kts 342°
2026-05-06 19:19 31.14769 121.79666 21 ft 7 kts 342°
2026-05-06 19:19 31.14817 121.79648 21 ft 7 kts 342°
2026-05-06 19:19 31.14863 121.79631 21 ft 6 kts 342°
2026-05-06 19:19 31.14904 121.79614 21 ft 5 kts 334°
2026-05-06 19:20 31.14932 121.79583 21 ft 5 kts 298°
2026-05-06 19:20 31.14934 121.79543 21 ft 4 kts 255°
2026-05-06 19:20 31.14924 121.79506 21 ft 5 kts 253°
2026-05-06 19:20 31.14906 121.79442 21 ft 10 kts 252°
2026-05-06 19:21 31.14879 121.79347 21 ft 11 kts 251°
2026-05-06 19:21 31.14899 121.79273 21 ft 10 kts 332°
2026-05-06 19:21 31.14966 121.79253 21 ft 9 kts 344°
2026-05-06 19:21 31.15029 121.79229 21 ft 9 kts 343°
2026-05-06 19:22 31.15108 121.79201 21 ft 14 kts 341°
2026-05-06 19:22 31.15221 121.79158 21 ft 19 kts 342°
2026-05-06 19:22 31.15358 121.79106 21 ft 21 kts 342°
2026-05-06 19:22 31.15501 121.79051 21 ft 21 kts 342°
2026-05-06 19:23 31.15648 121.78996 21 ft 22 kts 342°
2026-05-06 19:23 31.15796 121.78940 21 ft 22 kts 341°
2026-05-06 19:23 31.15945 121.78883 21 ft 22 kts 342°
2026-05-06 19:23 31.16076 121.78835 21 ft 14 kts 342°
2026-05-06 19:24 31.16141 121.78799 21 ft 8 kts 309°
2026-05-06 19:24 31.16157 121.78736 21 ft 5 kts 263°
2026-05-06 19:24 31.16143 121.78713 21 ft 0 kts 249°
2026-05-06 19:25 31.16141 121.78706 21 ft 2 kts 250°
2026-05-06 19:26 31.16130 121.78668 21 ft 7 kts 251°
2026-05-06 19:26 31.16103 121.78618 21 ft 7 kts 207°
2026-05-06 19:26 31.16055 121.78619 21 ft 6 kts 162°
2026-05-06 19:26 31.16015 121.78637 21 ft 4 kts 162°
2026-05-06 19:27 31.16009 121.78639 21 ft 4 kts 161°
2026-05-06 19:27 31.15897 121.78682 21 ft 46 kts 162°
2026-05-06 19:27 31.15361 121.78884 21 ft 113 kts 162°
2026-05-06 19:27 31.14408 121.79243 22 ft 168 kts 162°
2026-05-06 19:28 31.13254 121.79698 429 ft 183 kts 160°
2026-05-06 19:28 31.12089 121.80199 1249 ft 180 kts 161°
2026-05-06 19:28 31.10889 121.80686 1868 ft 185 kts 165°
2026-05-06 19:28 31.09636 121.81107 2371 ft 193 kts 163°
2026-05-06 19:29 31.08365 121.81632 3027 ft 192 kts 160°
2026-05-06 19:29 31.07116 121.82238 3545 ft 199 kts 158°
2026-05-06 19:29 31.05795 121.82784 3646 ft 225 kts 166°
2026-05-06 19:29 31.04274 121.83273 4324 ft 224 kts 165°
2026-05-06 19:30 31.02802 121.83871 4936 ft 228 kts 159°
2026-05-06 19:30 31.01286 121.84550 5374 ft 240 kts 162°
2026-05-06 19:30 30.99597 121.85151 5434 ft 264 kts 169°
2026-05-06 19:30 30.97791 121.85603 5801 ft 267 kts 168°
2026-05-06 19:31 30.95984 121.86161 6229 ft 278 kts 166°
2026-05-06 19:31 30.94091 121.86865 5828 ft 287 kts 161°
2026-05-06 19:31 30.90282 121.88438 6966 ft 287 kts 163°
2026-05-06 19:32 30.88397 121.89133 7827 ft 283 kts 164°
2026-05-06 19:32 30.86623 121.89774 8499 ft 286 kts 164°
2026-05-06 19:32 30.85316 121.90307 8978 ft 290 kts 159°
2026-05-06 19:32 30.83561 121.91515 9659 ft 297 kts 139°
2026-05-06 19:33 30.82317 121.93419 10318 ft 304 kts 117°
2026-05-06 19:33 30.81661 121.95792 10816 ft 317 kts 99°
2026-05-06 19:33 30.81574 121.98433 11209 ft 332 kts 84°
2026-05-06 19:33 30.82073 122.01117 11537 ft 349 kts 73°
2026-05-06 19:34 30.82837 122.03825 11870 ft 364 kts 70°
2026-05-06 19:34 30.83711 122.06691 12193 ft 380 kts 70°
2026-05-06 19:34 30.84600 122.09618 12525 ft 394 kts 70°
2026-05-06 19:34 30.85503 122.12684 13051 ft 402 kts 71°
2026-05-06 19:35 30.86386 122.15765 13663 ft 407 kts 72°
2026-05-06 19:35 30.87264 122.18887 14266 ft 412 kts 72°
2026-05-06 19:35 30.88151 122.22076 14936 ft 415 kts 72°
2026-05-06 19:35 30.89076 122.25275 15522 ft 421 kts 70°
2026-05-06 19:36 30.90214 122.28448 16115 ft 425 kts 62°
2026-05-06 19:36 30.91763 122.31359 16702 ft 428 kts 53°
2026-05-06 19:36 30.93600 122.34130 17287 ft 432 kts 49°
2026-05-06 19:36 30.95550 122.36784 17874 ft 435 kts 47°
2026-05-06 19:37 30.97554 122.39465 18387 ft 441 kts 49°
2026-05-06 19:37 30.99248 122.42444 18935 ft 446 kts 64°
2026-05-06 19:37 31.00254 122.45874 19485 ft 450 kts 77°
2026-05-06 19:37 31.00738 122.49515 19985 ft 455 kts 86°
2026-05-06 19:38 31.00833 122.53155 20548 ft 457 kts 91°
2026-05-06 19:38 31.00750 122.56886 21060 ft 461 kts 93°
2026-05-06 19:38 31.00612 122.60615 21612 ft 464 kts 94°
2026-05-06 19:38 31.00467 122.64407 22125 ft 468 kts 93°
2026-05-06 19:39 31.00343 122.68207 22623 ft 472 kts 93°
2026-05-06 19:39 31.00245 122.72021 23106 ft 475 kts 93°
2026-05-06 19:39 31.00172 122.75880 23576 ft 479 kts 92°
2026-05-06 19:39 31.00120 122.79796 24050 ft 483 kts 92°
2026-05-06 19:40 31.00084 122.83721 24529 ft 486 kts 91°
2026-05-06 19:40 31.00061 122.87672 24990 ft 490 kts 91°
2026-05-06 19:40 31.00045 122.91644 25429 ft 494 kts 91°
2026-05-06 19:40 30.99923 122.95601 25828 ft 497 kts 95°
2026-05-06 19:41 30.99500 122.99643 26295 ft 499 kts 101°
2026-05-06 19:41 30.98718 123.03545 26716 ft 501 kts 107°
2026-05-06 19:41 30.97670 123.07409 27105 ft 504 kts 111°
2026-05-06 19:41 30.96446 123.11291 27496 ft 507 kts 112°
2026-05-06 19:42 30.95163 123.15076 27909 ft 509 kts 114°
2026-05-06 19:42 30.93811 123.18936 28306 ft 512 kts 114°
2026-05-06 19:42 30.92454 123.22764 28719 ft 514 kts 114°
2026-05-06 19:42 30.91100 123.26590 29331 ft 511 kts 114°
2026-05-06 19:43 30.89751 123.30424 29991 ft 508 kts 114°
2026-05-06 19:43 30.88436 123.34184 30554 ft 506 kts 114°
2026-05-06 19:43 30.87119 123.37977 31103 ft 504 kts 114°
2026-05-06 19:43 30.85800 123.41789 31622 ft 503 kts 113°
2026-05-06 19:44 30.84498 123.45568 32039 ft 503 kts 113°
2026-05-06 19:44 30.83174 123.49294 32564 ft 500 kts 116°
2026-05-06 19:44 30.81638 123.52891 33077 ft 496 kts 121°
2026-05-06 19:44 30.79830 123.56290 33552 ft 493 kts 127°
2026-05-06 19:45 30.77746 123.59470 34013 ft 489 kts 133°
2026-05-06 19:45 30.75456 123.62338 34381 ft 487 kts 139°
2026-05-06 19:45 30.72923 123.64941 34828 ft 483 kts 145°
2026-05-06 19:45 30.70222 123.67208 35245 ft 478 kts 151°
2026-05-06 19:46 30.67331 123.69156 35672 ft 473 kts 158°
2026-05-06 19:46 30.64363 123.70718 36027 ft 469 kts 163°
2026-05-06 19:46 30.61300 123.71918 36332 ft 465 kts 169°